RH
42 36 37 39 41 49 59 63 61 56 53 56 57 57 58 59 60 61 64 67 67 68 69 69 71 72 72 73 74 73 72 71 71 70 69 68 68 68 68 68 68 67 67 66 66 68 69 71 74 77 80 82 82 78 71 65 63 63 66 69 69 69 66 65 67 66 61 57 55 54 51 48 45 45 46 49 51 52 54 56 61 69 71 65 61
43 39 41 44 44 48 58 65 65 59 57 58 59 59 60 61 63 66 69 70 70 72 73 73 76 77 77 77 77 75 74 73 73 72 71 71 72 73 72 71 70 69 68 68 68 69 70 73 76 77 77 80 84 85 82 78 73 67 67 70 71 70 69 68 68 67 64 58 55 55 54 50 47 46 45 48 53 55 57 56 56 61 66 64 60
45 42 45 48 48 51 58 65 67 63 59 59 59 60 62 64 67 71 73 74 74 75 75 77 79 79 79 78 78 77 75 74 74 75 75 76 76 76 74 73 73 73 73 75 76 78 80 84 86 85 81 81 82 82 82 81 80 77 74 72 72 72 71 71 69 67 65 61 57 57 57 54 51 50 49 50 54 58 59 58 56 56 59 63 62
46 46 50 51 51 55 59 63 66 65 61 60 61 63 65 68 71 74 75 76 76 76 77 78 79 79 79 78 77 77 76 76 78 80 81 80 79 77 76 77 79 80 81 84 86 89 91 93 94 93 91 89 87 83 81 80 79 78 78 75 72 70 71 71 71 69 66 64 62 59 58 58 55 53 54 55 58 61 62 61 59 57 58 62 65
50 51 54 54 54 56 59 60 62 64 64 63 64 66 68 71 73 75 76 77 77 78 79 80 81 81 80 80 79 78 77 78 82 85 86 85 83 82 82 84 88 89 90 91 91 93 94 95 96 95 95 95 94 90 86 84 82 79 76 74 73 73 71 69 69 69 68 66 64 62 60 60 59 56 56 59 60 63 67 66 63 61 60 62 63
53 55 57 58 57 57 59 59 59 61 63 64 66 68 70 73 74 76 77 78 80 82 82 82 83 83 81 81 82 81 81 84 88 91 90 88 87 87 90 93 94 95 95 94 93 93 93 94 95 95 97 98 98 97 94 92 91 88 83 79 81 83 80 74 68 66 68 67 64 63 62 61 61 60 59 60 62 64 66 66 67 67 66 63 62
56 58 60 60 59 58 58 60 61 62 63 65 68 70 73 75 77 79 79 80 83 85 85 86 86 85 85 85 86 88 90 92 94 93 91 90 91 94 97 98 97 97 97 96 96 96 95 97 97 96 95 95 95 96 97 96 94 93 92 89 89 88 84 82 77 70 68 67 64 64 64 62 62 63 63 63 64 66 64 60 60 64 68 68 65
59 61 62 61 60 59 60 62 64 65 66 69 71 73 77 79 81 84 87 88 91 92 92 93 93 92 92 93 93 94 96 97 96 96 96 96 98 100 101 100 100 99 99 99 99 98 95 95 95 92 89 88 86 85 88 91 91 89 89 90 92 88 82 79 75 70 68 66 63 62 63 64 64 65 66 66 66 66 66 62 57 56 59 64 66
62 62 62 61 60 61 64 65 66 67 69 71 74 77 81 83 87 91 94 95 97 98 98 98 98 99 99 99 98 97 98 99 99 99 100 101 101 101 100 100 100 100 100 100 100 100 97 95 94 92 89 89 89 90 93 96 96 94 90 89 91 90 84 77 70 66 67 67 65 62 63 64 64 65 68 69 66 65 64 64 62 58 56 56 56
65 66 66 64 64 65 67 67 67 68 71 75 79 84 87 90 95 98 99 98 97 98 98 98 100 102 102 101 101 100 100 100 100 101 102 102 101 100 100 100 100 100 99 99 97 96 97 98 98 97 96 95 94 94 93 91 88 87 86 86 87 87 85 80 73 67 66 66 65 64 64 64 64 64 67 68 67 67 65 63 62 61 60 57 53
67 69 69 67 68 68 68 68 69 71 77 82 87 92 95 97 99 99 100 99 97 97 98 97 99 102 102 102 101 101 101 100 100 102 101 100 100 100 100 100 100 100 99 98 96 90 87 88 89 89 90 90 89 86 84 83 81 80 80 80 80 83 86 86 81 73 67 63 64 65 64 64 66 66 66 65 65 66 66 64 61 60 60 61 59
70 70 69 68 68 68 68 69 72 78 85 90 94 97 99 101 101 100 99 99 98 99 99 99 99 101 103 103 101 102 102 99 102 105 101 99 98 98 101 101 100 101 100 99 98 92 88 88 88 89 88 88 89 86 83 86 87 85 83 77 72 75 83 87 85 81 74 65 64 67 65 64 68 70 69 67 64 63 63 63 63 61 59 61 62
70 71 71 70 70 70 71 72 78 86 92 95 97 99 101 103 103 101 101 101 102 101 100 101 101 101 102 102 101 103 99 95 102 105 101 98 89 84 96 103 100 100 101 99 100 98 97 96 95 95 94 93 94 92 86 85 86 86 85 81 75 74 78 82 81 82 83 76 68 69 67 65 68 70 71 71 67 64 64 63 63 63 62 63 63
73 73 73 73 72 73 75 78 84 92 95 96 99 102 103 104 102 101 103 104 104 103 102 103 102 100 101 101 101 103 96 93 102 102 98 99 87 76 91 104 99 99 101 99 100 101 99 98 95 94 95 95 97 96 92 88 86 85 86 87 87 83 79 81 79 80 87 85 79 75 70 69 71 69 69 73 70 67 66 65 65 67 67 69 67
76 74 74 75 75 77 80 82 88 95 97 99 101 102 101 102 102 103 104 104 104 102 102 103 103 102 102 100 101 102 95 93 103 101 90 90 86 81 94 104 99 100 102 99 101 101 98 97 96 94 96 97 97 97 96 94 93 91 91 93 94 88 84 88 88 85 87 87 87 87 80 75 75 71 70 72 70 70 70 67 68 71 73 74 73
76 74 74 74 77 81 84 88 95 99 101 102 104 102 100 100 101 103 104 104 102 102 102 102 103 103 101 100 102 103 95 92 103 103 85 79 88 93 99 103 98 98 99 96 98 101 99 98 99 98 98 99 98 97 97 98 97 96 95 96 94 89 87 90 89 86 87 86 85 86 82 78 79 80 77 74 73 76 76 72 73 76 76 76 74
72 71 73 74 80 88 93 97 101 102 102 103 104 104 104 102 102 102 102 102 101 101 102 101 102 101 101 102 103 104 98 92 101 104 81 71 91 104 100 99 96 91 90 90 91 93 93 93 94 97 99 99 97 96 96 97 97 96 95 94 92 87 83 84 87 86 86 85 84 83 83 81 81 81 81 80 81 84 81 76 77 79 78 77 73
74 75 78 82 89 96 99 102 104 103 103 103 103 104 104 104 103 102 101 101 100 101 100 100 101 100 100 103 102 104 102 91 95 105 84 65 84 104 100 95 92 86 85 88 88 88 86 83 81 85 90 94 97 98 96 96 97 98 96 93 91 86 79 77 86 90 88 88 88 86 87 86 81 78 81 84 86 88 85 80 78 79 78 76 72
82 85 89 92 97 100 102 104 105 104 105 105 105 104 103 102 102 101 101 100 100 100 100 100 102 101 101 102 100 102 102 87 84 101 96 74 83 102 101 94 91 86 87 89 87 84 81 77 75 77 82 87 94 95 90 89 94 98 97 93 90 86 79 75 84 93 94 94 91 85 85 89 89 88 88 88 88 91 92 86 79 78 80 77 73
90 94 97 99 101 103 104 106 106 105 105 104 104 104 103 104 104 102 101 101 99 100 100 100 102 102 100 100 97 97 100 91 84 96 101 87 84 96 101 97 93 91 92 91 84 78 76 75 74 77 82 86 91 91 82 82 90 95 94 92 88 84 79 76 83 92 95 94 92 88 86 87 93 97 96 93 92 93 96 94 86 81 82 79 74
97 100 101 102 103 104 105 106 104 102 102 102 103 102 101 104 105 102 102 102 100 101 102 103 105 103 99 99 97 94 97 98 94 99 102 92 83 91 101 100 97 98 96 90 81 76 78 80 78 80 86 89 91 89 83 81 86 87 87 88 86 82 78 77 84 92 94 96 96 95 91 87 89 95 97 97 98 96 97 100 94 88 87 83 76
102 102 101 101 103 104 103 102 101 101 100 101 103 101 98 101 103 102 101 102 101 101 103 104 105 103 98 96 95 91 92 95 95 98 102 94 86 92 102 101 99 102 97 86 80 80 83 85 84 86 91 92 88 84 83 85 86 83 80 81 82 80 76 77 87 90 88 93 96 92 89 86 83 86 89 91 95 95 97 101 99 97 97 91 82
103 102 100 101 103 102 100 99 100 101 99 100 103 102 100 101 104 103 103 104 103 101 101 101 101 99 94 91 89 87 87 88 90 94 98 96 90 89 97 101 100 99 94 85 82 85 88 91 92 92 94 96 90 81 79 83 86 85 82 81 83 81 74 76 88 88 79 84 90 86 84 83 79 78 79 80 82 84 85 89 93 98 102 96 89
101 100 101 104 104 100 99 101 101 100 98 99 104 104 102 103 105 105 105 105 103 100 98 96 94 91 88 86 84 83 83 83 87 90 92 97 95 86 90 102 101 93 90 88 85 88 94 97 97 96 98 100 96 90 85 83 81 81 83 83 83 82 75 75 86 89 81 82 86 83 81 80 76 75 76 75 77 78 77 78 83 93 101 99 92
101 101 103 105 102 99 101 103 101 99 99 102 106 106 105 106 106 104 103 102 100 98 95 92 89 86 84 82 80 81 81 81 84 86 87 93 97 92 94 100 94 88 89 89 88 93 99 99 97 98 100 100 99 98 94 89 84 81 83 86 86 84 79 75 81 88 86 83 84 82 79 76 74 74 76 76 79 84 84 83 84 91 99 101 95
101 103 105 104 101 100 103 104 101 100 101 104 108 107 106 107 106 103 101 99 96 95 93 90 87 83 81 81 80 80 80 80 82 84 84 88 95 99 100 95 88 88 91 90 92 98 98 95 95 97 99 100 101 99 95 93 92 86 83 85 85 84 79 74 78 88 87 82 83 83 79 76 77 81 83 85 87 88 87 85 84 86 94 100 100
103 107 106 104 102 102 103 103 101 102 103 104 106 105 104 105 105 102 99 96 93 93 93 89 85 83 82 82 80 79 80 81 81 83 86 91 98 102 99 90 87 91 93 93 97 99 94 91 91 92 92 93 95 94 93 92 91 85 80 78 76 77 78 75 77 85 85 80 80 81 78 77 80 86 92 94 95 91 87 84 81 82 90 100 101
106 106 103 102 102 101 102 103 102 101 103 103 104 103 102 103 102 100 99 98 97 97 97 93 90 89 88 86 82 80 80 81 83 89 95 100 104 103 98 92 92 96 97 98 99 97 91 89 87 86 88 88 88 88 89 89 89 87 87 85 80 80 81 79 78 83 84 82 80 79 78 79 83 89 94 95 93 91 89 86 81 81 90 99 98
106 102 97 99 102 102 103 104 102 101 102 103 103 102 101 101 101 100 100 101 100 99 100 100 99 98 97 94 90 88 88 89 91 94 94 95 100 103 100 97 98 100 101 101 97 90 85 84 83 84 86 86 85 86 86 86 87 88 90 92 91 89 87 81 77 78 82 84 82 79 80 84 86 89 92 91 90 90 89 87 83 83 91 95 90
106 101 99 100 101 103 104 104 101 101 101 102 102 100 100 101 102 102 101 100 101 100 97 96 99 100 101 99 97 97 98 97 95 89 82 82 92 100 101 100 101 101 100 97 90 83 81 81 80 82 85 85 84 86 86 87 88 87 88 90 92 93 94 89 81 75 76 79 81 80 82 85 88 88 88 87 87 88 89 88 85 84 88 90 85
106 104 103 103 102 104 105 103 100 100 101 101 101 99 99 100 100 102 102 101 101 97 86 82 90 99 101 100 101 101 100 99 96 88 82 85 93 99 101 101 100 101 101 96 87 81 81 81 80 81 85 86 86 87 88 88 89 90 89 89 89 93 98 97 93 87 80 76 78 82 84 83 84 86 86 85 85 86 89 91 88 83 84 84 81
105 106 106 106 105 104 102 101 100 100 100 100 100 99 100 97 93 94 99 103 104 100 89 83 90 99 97 95 99 101 100 100 100 94 91 94 99 101 101 98 95 98 101 94 85 81 81 81 80 82 84 86 87 89 90 90 90 91 91 90 92 95 99 99 100 99 92 80 74 79 83 82 81 83 83 84 85 86 90 92 89 84 82 80 77
104 106 107 107 105 103 100 100 100 100 99 100 100 99 100 97 92 91 95 98 101 102 98 95 99 103 98 93 97 102 100 99 100 99 98 99 101 101 101 100 99 101 99 91 84 83 83 82 82 84 85 87 88 89 91 92 92 93 92 93 95 98 99 100 101 102 100 90 78 75 79 81 81 81 82 85 86 86 88 89 86 84 82 78 76
104 106 106 104 102 101 100 100 100 100 100 100 100 99 99 99 98 97 95 93 91 92 92 94 99 105 102 96 96 101 101 98 99 100 99 98 99 101 101 99 98 99 96 89 84 84 84 83 84 85 86 88 89 91 92 94 96 96 95 96 98 98 98 100 102 101 102 99 92 86 83 82 82 80 81 84 87 86 86 85 82 83 83 79 76
104 104 102 102 102 101 100 100 100 100 100 100 100 100 99 99 99 100 98 95 92 90 89 90 93 99 103 101 98 100 102 100 99 100 98 97 100 100 94 87 86 87 87 86 85 85 85 85 86 87 87 89 90 93 95 97 98 98 98 98 100 99 98 100 103 103 101 101 100 99 95 92 89 86 83 84 86 86 85 83 81 82 84 81 77
103 101 100 101 102 101 100 100 100 100 101 102 101 100 100 99 99 99 99 98 95 91 89 90 92 95 100 102 99 97 99 100 100 100 99 100 102 98 90 84 84 85 84 84 85 86 86 86 87 88 89 90 92 94 97 98 100 100 100 99 99 100 99 100 102 104 103 101 101 103 101 99 99 96 90 87 87 86 84 82 81 83 84 82 78
103 100 101 102 102 101 101 100 100 101 102 104 102 100 99 100 99 99 99 97 95 93 90 91 93 93 92 94 96 97 99 101 101 101 101 102 101 97 90 88 88 87 85 86 87 88 87 87 88 90 92 93 94 96 98 99 100 100 101 99 98 100 100 101 102 104 104 102 102 102 102 100 101 101 97 92 89 87 85 84 83 84 86 85 82
102 101 102 103 103 102 101 100 100 100 101 101 100 99 100 100 99 99 98 96 95 95 91 89 91 90 87 90 97 100 101 98 95 95 96 97 96 93 90 90 90 88 87 89 90 90 89 89 90 92 94 95 97 98 98 99 99 100 101 99 97 98 99 100 101 102 102 102 102 102 101 101 101 102 101 97 94 92 90 88 87 86 89 90 86
102 102 101 101 104 104 102 101 101 100 99 100 99 99 100 100 98 98 97 94 93 92 89 87 89 88 88 93 99 100 98 93 89 90 93 95 94 93 91 90 90 90 91 92 92 92 92 91 92 94 96 97 98 99 99 99 99 100 100 99 97 97 99 99 100 100 100 102 102 102 102 101 101 101 101 100 99 99 98 95 92 90 89 90 87
102 101 100 101 104 105 103 102 101 99 99 99 99 99 99 99 98 98 97 95 93 91 89 89 89 89 93 99 102 100 98 95 91 92 95 96 95 95 93 91 91 93 95 95 95 95 95 94 95 97 97 97 99 100 99 100 100 99 100 100 99 98 100 100 100 100 100 100 101 102 102 102 101 100 101 100 101 102 102 100 97 93 91 90 89
100 100 99 101 102 101 101 101 100 99 99 99 99 99 99 99 99 99 97 96 95 94 93 93 93 94 98 103 105 103 100 98 96 96 98 97 96 96 95 95 95 97 97 97 98 98 98 98 98 99 99 99 100 100 99 100 100 99 100 100 99 99 101 103 102 101 100 100 100 100 102 102 102 100 100 101 101 101 101 101 100 98 94 93 93
102 101 99 100 100 99 100 100 99 99 100 99 99 99 99 98 99 99 98 98 98 97 96 95 95 96 98 101 105 106 104 100 99 99 100 99 98 98 97 97 98 98 98 99 100 99 99 99 99 100 100 100 100 100 100 100 100 100 100 100 100 99 101 103 102 101 100 100 100 100 100 102 103 101 100 101 101 100 99 100 100 99 97 96 96
102 100 100 100 100 99 100 100 99 99 99 99 99 100 100 99 99 99 99 98 98 98 99 97 96 97 98 99 102 103 102 100 99 100 100 100 98 98 99 99 99 99 99 99 100 100 100 99 99 100 100 100 100 100 100 100 100 100 100 100 100 100 100 101 101 101 100 100 100 100 100 102 104 102 101 102 102 100 99 99 98 97 96 97 97
100 100 100 100 99 99 99 99 99 99 99 100 101 101 100 100 100 99 99 98 97 98 99 98 97 98 99 99 99 100 99 99 99 100 101 101 99 99 99 99 100 100 100 100 100 100 100 100 100 100 100 100 100 100 100 100 100 100 100 100 100 100 100 100 100 100 100 100 100 100 99 101 102 101 101 102 102 100 98 97 98 97 96 96 97
100 100 100 99 99 99 99 99 99 100 100 100 100 99 99 100 99 99 99 98 98 98 99 98 98 98 98 98 99 99 99 99 100 100 101 100 100 100 100 101 101 101 100 100 100 100 99 100 100 100 100 100 100 100 100 100 100 99 100 100 100 100 100 100 101 102 102 100 100 101 100 99 100 100 100 101 101 99 98 98 99 99 98 97 97
100 100 100 99 100 99 99 99 100 100 100 100 99 98 98 99 98 99 99 99 99 100 99 98 98 99 98 98 99 100 100 100 100 100 100 100 102 103 102 101 101 101 99 100 101 100 100 100 100 100 100 100 100 100 100 100 100 100 100 100 100 100 100 99 100 103 103 101 100 101 101 100 100 101 101 102 101 99 99 100 100 100 99 98 97
100 100 100 100 100 99 100 100 99 100 100 100 99 99 99 98 98 99 99 100 101 101 100 99 98 98 98 99 100 100 100 100 100 100 100 102 105 106 104 102 102 101 100 100 101 100 100 100 100 100 100 100 100 100 100 100 103 103 102 100 100 100 100 99 101 103 103 101 102 105 104 101 100 101 101 101 101 100 99 100 100 100 100 99 97
100 100 100 100 100 100 100 99 99 100 100 99 99 100 100 99 99 99 99 99 100 101 100 100 99 99 99 100 100 100 100 100 100 100 102 105 107 108 106 104 103 102 102 103 103 101 100 100 100 100 100 99 100 100 99 101 104 104 101 100 100 100 99 100 102 103 102 101 102 106 106 104 104 104 102 102 103 103 101 100 100 100 100 99 98
100 100 100 100 100 100 100 99 100 99 99 99 100 100 100 100 100 99 99 99 99 99 99 99 99 99 100 101 100 100 100 100 100 100 102 105 108 108 108 106 104 103 105 107 105 102 101 100 100 100 100 100 100 100 99 100 102 102 100 99 101 101 100 100 101 102 101 99 100 103 105 104 105 106 106 105 105 105 102 100 101 101 101 99 99
100 100 100 100 100 100 100 100 100 100 100 100 100 100 100 101 100 99 100 100 99 99 99 99 100 100 101 101 100 100 100 100 100 100 101 105 108 109 109 108 105 103 105 108 107 104 102 101 100 100 100 100 100 100 100 100 101 100 100 100 100 101 103 103 100 99 100 97 95 99 103 104 103 105 106 105 104 103 102 101 102 102 101 100 100
100 100 100 100 100 100 100 100 100 100 100 100 100 100 100 100 99 99 100 100 100 100 100 99 100 101 100 100 100 100 100 100 100 99 100 103 107 109 109 107 103 102 105 108 108 105 102 101 100 100 101 100 100 100 100 100 100 99 100 101 100 100 103 104 101 98 96 93 88 91 99 102 102 104 106 106 104 103 103 102 103 103 102 101 100
Wind_Speed
17 17 16 16 16 15 15 15 15 15 16 15 15 15 16 16 16 17 17 17 17 17 18 18 18 18 18 19 19 19 19 18 18 17 18 19 19 19 19 19 20 20 20 19 19 19 20 21 21 20 20 21 22 21 22 24 26 28 28 28 29 28 29 27 20 19 24 26 28 29 26 25 26 25 24 23 24 25 25 24 22 21 21 20 21
18 18 17 16 17 17 16 15 15 16 16 16 15 15 16 16 17 17 18 18 17 18 19 19 19 19 19 20 19 19 19 19 18 18 18 20 20 20 20 20 20 20 20 21 20 20 21 22 22 21 21 22 23 22 22 22 23 26 28 28 29 29 28 28 25 20 21 24 27 29 28 26 28 27 25 25 26 26 26 26 24 22 22 21 21
17 17 16 16 18 17 16 15 15 16 16 16 15 16 17 17 17 17 18 18 18 18 19 19 20 20 20 20 19 19 19 19 18 19 19 21 21 21 21 21 21 21 22 22 21 21 21 22 22 21 20 22 23 23 23 23 22 23 26 27 28 29 28 28 28 26 23 24 26 28 27 25 27 28 26 26 28 27 27 28 26 24 24 23 22
17 16 16 16 17 16 15 15 15 16 16 16 16 17 18 18 17 17 18 18 18 19 19 19 20 20 20 20 19 19 20 20 20 20 20 21 22 22 22 22 22 23 23 22 22 21 22 22 22 21 21 22 23 23 22 23 24 24 25 26 27 29 30 29 30 29 27 25 25 27 27 25 26 27 26 26 28 28 27 28 28 26 25 25 24
16 16 16 16 17 16 15 15 15 16 16 16 17 17 18 18 18 18 18 18 19 19 20 19 19 19 19 20 20 20 20 21 21 21 21 21 22 23 23 22 22 22 22 22 22 22 23 24 24 23 23 24 24 23 23 23 24 25 26 26 26 27 28 29 30 31 29 28 28 27 27 27 27 27 26 26 27 27 26 27 28 26 25 25 25
17 17 17 17 17 16 16 16 16 16 16 17 17 18 18 18 18 18 18 20 20 20 20 20 19 20 20 21 21 21 21 21 21 21 22 22 22 22 22 22 22 22 22 23 24 25 25 26 26 25 25 26 26 25 25 25 25 26 27 27 26 26 26 28 30 30 30 30 29 27 27 28 27 27 27 27 27 26 23 24 25 25 25 26 26
17 17 17 17 17 17 16 16 16 16 16 17 17 18 18 18 19 19 19 20 21 21 21 21 20 20 21 21 21 21 20 19 20 21 22 22 22 22 21 21 23 23 25 26 26 27 28 28 28 28 29 31 32 30 28 27 26 26 27 27 26 27 27 27 27 28 29 29 29 27 27 28 28 27 28 27 28 28 26 24 23 22 22 24 25
16 16 16 17 17 16 16 16 16 16 16 17 18 18 18 19 19 19 18 18 19 19 19 20 19 19 19 19 19 19 19 19 19 20 21 21 22 23 24 25 28 31 33 34 32 32 34 33 33 35 37 37 38 37 35 34 30 28 27 27 26 27 27 27 27 28 29 29 28 28 27 27 28 27 27 27 27 27 27 24 24 23 21 21 22
16 16 17 17 16 16 16 16 16 16 17 18 18 18 19 19 18 18 18 17 17 17 17 18 19 19 19 19 18 18 19 19 20 21 23 24 26 29 32 34 35 36 36 36 34 34 36 37 38 39 39 37 36 36 36 35 32 29 28 27 27 27 27 27 28 29 29 27 27 27 25 25 27 25 25 26 27 26 25 22 22 24 22 21 22
16 17 17 17 17 17 17 16 16 17 18 19 19 19 19 18 17 16 16 17 18 18 19 20 20 21 21 21 21 21 21 23 26 27 28 30 31 32 33 33 32 31 31 31 30 30 31 32 34 34 34 34 34 34 35 35 35 35 35 33 31 30 29 28 28 29 28 25 25 25 21 21 26 26 26 26 25 24 23 21 21 23 20 19 22
17 17 17 17 17 17 17 16 17 18 19 19 19 18 17 16 17 18 17 17 18 18 20 22 23 23 23 24 24 24 25 28 30 31 31 32 33 32 32 31 30 30 30 29 29 29 28 28 29 30 31 33 34 34 36 37 37 38 39 39 38 37 35 32 30 29 28 26 27 26 22 22 26 27 28 28 26 23 22 21 22 22 19 15 15
17 17 17 18 17 17 17 17 18 19 19 18 17 16 16 17 20 22 20 20 20 20 22 25 26 25 24 25 26 26 28 31 31 32 33 34 34 34 33 31 30 29 28 28 28 28 27 28 29 30 31 32 34 35 35 36 37 38 40 41 41 42 41 39 36 32 30 28 28 28 27 26 25 25 26 26 26 25 23 22 22 21 20 18 16
17 18 18 18 17 17 17 17 18 18 17 16 15 16 18 21 23 23 23 22 22 23 24 25 26 26 25 27 28 29 30 33 32 31 33 34 35 35 34 31 29 28 27 26 26 26 26 27 28 29 30 31 31 33 35 37 38 38 39 40 41 42 43 44 44 40 35 33 31 30 30 29 26 25 26 25 24 24 23 22 23 22 21 21 20
17 18 18 17 17 16 17 18 18 17 16 15 15 17 20 22 24 24 24 22 22 23 24 24 25 26 27 27 28 29 32 33 32 32 34 34 34 35 34 31 28 27 26 25 26 26 26 27 28 29 30 29 28 29 33 36 37 36 35 36 37 38 39 41 43 44 41 40 37 34 33 33 31 29 27 27 27 25 24 23 23 23 23 23 22
18 18 17 17 17 16 17 19 18 16 16 15 17 20 22 24 25 25 22 20 21 22 22 23 24 26 27 27 27 30 33 33 31 32 34 34 34 34 32 28 25 25 25 26 27 28 28 28 28 28 29 28 28 30 31 31 33 34 33 32 33 34 35 36 37 39 39 39 39 38 37 38 37 35 32 31 31 30 28 26 24 23 23 22 21
18 18 17 18 18 18 18 18 17 17 18 18 21 23 24 25 27 25 23 22 21 21 22 23 24 25 26 26 27 31 34 32 30 32 34 34 34 33 29 26 26 25 25 26 28 29 30 30 29 29 29 28 30 33 34 32 31 32 32 31 32 32 33 35 36 36 37 37 37 39 39 39 38 38 35 33 32 32 30 28 25 23 21 18 18
19 18 18 19 18 17 16 16 18 20 20 21 22 23 24 26 26 24 22 22 22 22 24 24 23 24 25 26 27 30 32 31 31 33 34 34 33 31 27 26 25 25 26 27 27 28 31 32 32 33 33 32 32 35 36 35 33 32 32 31 31 32 34 34 34 34 35 36 36 36 36 37 38 39 37 35 33 30 28 26 24 22 18 14 13
19 18 18 18 17 15 15 17 20 21 21 22 22 23 25 26 25 22 20 21 22 23 23 22 22 22 24 27 27 28 30 31 31 32 33 33 32 30 27 24 25 25 25 26 26 28 32 33 33 35 36 35 35 35 35 34 31 30 32 32 31 32 34 33 31 32 33 33 32 32 32 33 36 38 37 36 34 31 28 25 23 21 18 14 11
18 17 17 16 16 16 17 19 19 20 22 24 24 25 26 26 24 21 19 20 22 21 20 21 22 23 25 27 27 27 30 32 32 31 32 33 32 29 26 24 25 25 24 26 28 29 30 30 30 33 36 35 35 36 37 36 32 28 29 30 29 30 32 31 29 29 28 27 28 29 29 28 29 32 35 35 33 32 29 25 24 22 19 17 15
16 16 16 16 16 17 17 19 21 23 26 27 27 27 27 25 24 23 21 20 20 20 21 21 23 25 26 26 26 26 28 30 31 31 31 32 32 30 26 24 24 25 26 28 28 27 27 28 28 31 35 36 36 37 37 36 33 31 30 29 28 28 29 29 29 27 24 23 25 26 26 25 23 25 29 31 32 33 30 26 27 25 19 17 17
16 16 16 17 17 18 19 22 26 28 29 29 29 29 27 25 26 25 23 21 20 22 25 24 24 25 24 22 24 25 24 25 28 29 30 32 33 31 28 25 25 27 28 27 25 25 25 26 28 31 35 37 37 38 37 33 31 32 32 31 30 30 28 27 28 28 25 21 20 19 20 22 21 19 19 20 23 27 25 23 28 30 22 17 18
17 17 18 18 19 22 25 28 29 30 31 29 29 30 29 27 26 25 23 22 22 25 28 27 23 22 21 20 22 23 23 23 25 27 30 32 33 31 29 29 29 29 26 23 23 24 25 25 28 33 37 40 40 38 35 32 30 30 30 30 30 31 30 27 25 27 25 20 17 16 16 18 19 18 17 16 16 19 19 16 22 27 23 20 19
19 18 19 21 24 28 29 30 30 30 30 29 28 29 29 27 25 24 22 21 21 22 23 22 19 20 20 19 21 22 23 23 23 25 28 31 32 32 32 33 32 29 24 23 24 24 24 26 30 35 39 41 40 37 32 29 28 27 28 28 28 28 29 27 24 24 23 20 18 17 16 17 18 18 19 19 17 20 23 21 20 24 24 24 23
19 19 21 25 29 30 29 30 31 30 29 28 27 27 27 26 24 22 19 17 17 16 17 17 17 19 20 20 21 23 23 23 22 24 27 30 31 33 34 34 33 29 25 24 23 22 24 28 33 36 38 39 38 35 31 27 25 25 25 25 24 24 24 24 21 20 20 19 17 16 15 16 18 18 18 18 18 20 25 25 23 23 24 25 27
21 23 26 28 29 29 29 30 30 28 27 25 23 23 23 22 21 19 16 13 13 14 16 17 17 19 19 20 22 23 24 24 23 23 27 29 28 32 36 35 31 28 26 25 23 23 26 30 33 34 34 34 33 30 27 24 22 22 22 21 20 20 20 21 18 16 17 17 17 16 16 17 19 18 19 20 20 18 18 19 20 22 23 24 27
26 27 29 30 29 29 29 29 27 27 26 22 19 19 19 19 19 18 14 12 13 15 16 18 18 19 19 20 23 24 24 23 23 24 26 26 26 31 36 32 27 26 25 23 23 24 27 28 29 28 28 28 27 25 23 21 20 20 19 18 17 16 16 17 16 14 15 16 17 17 17 18 18 18 18 18 17 16 15 16 18 21 22 21 20
28 29 30 29 29 28 28 27 26 24 22 19 17 16 17 17 18 16 13 12 14 16 17 18 18 18 19 21 23 23 23 23 23 23 23 25 27 33 33 28 24 24 22 21 22 24 26 26 24 24 25 25 24 22 21 18 15 14 14 14 14 14 15 15 14 14 16 17 17 18 18 18 17 15 14 13 13 14 16 18 19 21 21 20 16
28 29 29 29 29 28 27 25 24 21 20 20 18 16 15 16 16 16 15 14 15 18 19 20 19 20 21 22 22 22 22 22 22 22 24 28 32 32 28 24 23 22 21 22 24 23 22 22 21 20 22 23 22 21 20 18 15 13 13 12 12 12 13 14 14 13 14 16 16 17 17 17 15 14 13 13 14 15 16 18 19 20 20 19 16
28 29 29 29 28 26 23 22 21 20 20 21 19 17 19 20 20 22 22 19 18 21 23 23 22 23 22 20 19 20 20 21 24 27 31 33 33 29 25 23 24 22 21 24 24 20 18 17 17 18 19 19 19 19 19 19 18 16 16 16 14 12 11 13 14 14 13 14 15 16 16 15 15 14 14 14 15 16 16 18 19 19 19 19 17
27 28 28 26 23 21 19 19 19 18 18 18 18 19 22 22 21 24 25 23 21 24 26 27 26 23 19 16 17 19 20 23 28 32 33 33 32 28 25 25 24 23 23 23 19 15 14 14 14 15 17 17 17 17 18 18 18 17 17 16 15 14 13 11 11 13 14 14 14 15 15 15 14 14 15 15 15 16 17 19 20 19 19 18 17
25 24 23 22 22 22 22 21 20 18 17 17 16 16 19 20 19 20 22 23 24 24 26 27 25 20 18 18 19 20 21 24 28 31 31 31 30 27 25 25 23 22 22 20 15 12 13 13 13 14 15 16 16 17 17 17 17 17 17 16 15 15 14 14 12 11 12 14 14 14 15 16 16 15 15 15 15 16 16 18 19 19 19 18 17
24 25 25 26 27 26 23 21 20 19 17 17 15 13 15 19 20 19 19 21 23 24 25 25 22 19 20 22 23 22 22 24 27 29 30 30 29 26 24 23 21 20 19 16 12 11 13 13 13 14 15 15 16 17 17 17 16 16 16 16 16 16 15 15 16 14 11 12 13 14 16 17 17 16 16 16 16 15 16 17 17 18 18 18 18
26 28 28 28 27 24 21 19 18 15 15 15 15 13 14 16 19 21 21 21 22 23 22 22 19 18 21 24 24 23 24 25 26 27 28 29 28 25 23 20 17 16 16 13 12 12 13 12 13 13 14 15 16 16 16 16 16 17 15 15 16 16 17 17 16 12 9 10 12 14 16 17 17 16 16 16 16 16 15 16 17 18 17 17 17
26 28 28 27 26 23 20 18 16 15 15 16 15 14 13 14 16 18 20 21 21 21 22 20 17 16 20 25 24 23 24 26 25 25 27 28 25 23 21 17 14 13 13 11 12 12 13 13 13 14 14 15 16 16 16 16 16 16 16 16 16 16 17 18 17 14 10 8 8 11 13 14 15 16 15 15 15 15 15 16 16 17 16 16 15
27 27 27 26 25 22 19 18 17 17 17 16 15 14 14 14 14 15 16 18 19 20 21 21 18 17 20 22 23 23 24 23 23 24 25 25 23 20 18 15 14 14 13 12 12 13 13 13 14 14 15 15 15 16 16 16 16 17 17 17 17 17 17 17 17 18 15 10 8 6 8 9 11 13 15 15 15 14 14 15 16 16 17 16 15
27 26 24 23 21 20 19 19 18 18 18 18 17 16 14 13 14 14 14 15 16 17 19 19 18 19 18 17 19 24 24 22 21 23 24 23 20 17 14 14 14 14 13 13 13 13 13 13 14 14 15 15 15 15 15 15 15 16 17 17 16 16 17 16 18 20 17 13 12 11 8 5 6 8 11 14 14 14 14 15 16 16 16 16 14
27 25 23 22 21 20 20 20 19 20 21 19 16 15 14 13 13 13 14 15 15 16 18 17 17 19 17 14 16 22 24 22 20 19 19 20 17 13 11 12 13 13 13 14 14 14 14 14 14 14 15 15 15 15 15 15 15 15 17 17 16 16 16 16 17 18 17 14 13 14 12 9 8 5 6 9 11 13 13 14 15 15 15 15 14
26 25 24 24 23 21 20 19 18 19 18 16 13 13 13 13 13 13 14 15 14 15 16 16 16 17 17 15 16 19 21 21 18 15 15 16 14 12 12 12 11 12 13 13 14 14 15 15 14 14 14 14 15 15 14 14 15 15 16 17 16 16 17 16 16 17 16 14 13 13 12 11 11 9 6 3 4 8 10 12 14 13 13 14 13
23 23 23 24 24 21 19 18 17 16 15 13 13 13 13 13 13 14 14 14 15 15 15 15 15 15 15 15 16 17 19 18 16 14 13 13 12 12 13 12 11 12 13 13 14 14 14 15 15 14 14 13 14 15 15 14 14 15 16 16 15 15 16 16 16 16 16 15 14 14 13 13 12 11 9 7 4 2 4 7 10 11 12 12 11
22 21 22 23 23 20 18 17 16 14 12 12 13 13 13 13 13 14 14 14 14 15 14 15 15 13 13 14 16 17 17 17 15 13 13 13 12 12 12 12 12 12 12 13 14 14 14 15 15 15 14 13 13 14 15 14 13 13 15 16 14 13 13 14 16 16 16 15 15 14 14 14 13 12 10 9 8 6 3 3 5 8 11 11 10
21 21 21 22 21 19 17 15 14 13 13 14 14 13 13 13 13 13 13 13 14 14 15 15 14 12 12 14 16 17 16 15 13 12 12 12 12 12 12 11 12 11 11 12 14 14 14 15 15 15 14 14 13 14 15 15 13 12 13 14 14 13 12 13 15 17 17 16 14 14 14 14 13 11 10 10 9 8 6 5 4 5 7 8 9
22 21 21 20 19 17 15 13 13 14 14 14 13 13 13 13 12 13 13 13 13 13 14 14 13 12 12 14 16 16 14 13 12 12 12 12 11 11 11 11 11 11 11 13 14 14 13 14 15 15 14 14 15 15 14 15 14 13 11 13 14 14 13 13 15 18 18 17 15 14 15 14 12 10 9 9 8 7 7 6 5 4 4 5 6
22 21 20 19 18 16 14 13 13 13 12 12 13 14 15 14 14 13 13 12 12 12 13 14 13 11 12 14 15 14 12 10 10 12 12 11 11 11 11 11 10 11 12 14 14 13 13 14 14 14 14 14 15 15 14 14 14 13 12 12 13 13 13 13 14 16 18 18 17 15 14 13 12 9 8 9 8 7 6 6 5 3 2 3 4
20 19 17 17 16 15 14 13 13 13 14 15 16 16 16 15 14 13 12 12 12 12 12 12 12 11 11 12 12 11 10 9 10 11 12 12 12 11 11 11 12 13 13 14 13 13 13 14 14 14 14 14 14 14 14 13 12 12 12 12 12 12 12 13 15 16 16 17 17 16 14 13 11 9 7 8 7 6 5 5 4 3 2 1 2
18 17 16 15 15 14 13 13 13 14 15 15 14 13 13 12 12 12 12 12 12 12 12 11 11 11 11 11 11 11 11 11 12 12 12 12 12 12 12 12 13 13 13 13 13 13 13 13 13 14 14 14 14 14 14 13 12 12 12 11 12 12 12 12 15 17 16 15 16 16 15 13 11 9 7 7 6 5 5 4 3 2 1 0 1
18 17 17 16 16 15 14 14 14 14 14 13 12 12 12 12 11 12 12 13 13 13 13 12 11 11 11 11 12 12 12 12 12 12 12 12 12 12 12 13 13 14 13 13 13 13 13 13 13 13 14 14 14 14 14 13 12 12 12 11 11 12 12 12 14 16 15 14 14 14 14 12 11 9 8 7 5 4 4 3 3 2 1 1 2
18 17 17 17 17 17 16 15 14 14 14 13 12 12 13 13 13 13 13 14 14 15 14 13 11 11 11 12 13 13 12 12 12 12 12 13 13 12 13 13 14 14 13 13 13 13 12 12 12 13 13 14 14 14 13 13 13 13 12 11 11 12 12 13 15 15 14 13 13 13 12 11 11 10 9 7 5 4 3 2 2 1 1 1 2
18 17 17 17 17 17 16 15 14 14 13 12 13 14 14 15 14 14 13 14 14 14 14 13 12 11 12 13 13 13 13 12 12 12 12 13 12 12 13 13 13 13 14 14 14 13 12 12 12 13 13 13 13 13 13 13 13 13 12 12 12 13 13 14 14 15 13 13 13 12 11 10 11 10 9 7 6 4 3 2 2 1 1 1 2
18 17 18 18 17 17 17 16 15 15 14 13 14 15 15 15 15 14 14 13 13 13 13 13 12 13 13 13 14 14 13 13 13 12 12 13 13 13 13 13 14 15 15 15 14 13 12 12 12 12 12 13 13 13 13 12 12 13 13 13 14 15 14 13 14 14 13 12 12 12 10 9 9 10 10 8 6 5 4 3 3 2 1 1 2
17 17 18 18 18 18 18 17 16 16 16 15 15 15 15 15 15 14 13 14 14 14 13 13 13 14 14 14 14 15 14 14 13 13 13 13 13 13 14 14 15 15 16 16 15 14 14 12 11 12 12 12 12 12 13 12 11 12 14 15 16 16 15 15 14 12 12 12 12 11 10 8 8 8 8 8 7 6 5 4 3 2 2 2 2
18 18 18 18 18 18 18 17 17 17 16 15 15 15 15 14 14 13 14 15 15 15 14 14 15 15 15 15 15 15 15 15 15 15 14 13 13 14 15 15 15 16 17 17 16 15 14 13 11 11 12 12 12 13 12 11 11 13 15 15 15 15 16 16 14 12 12 12 12 10 9 8 7 7 7 7 7 6 6 5 4 3 2 2 2
Wind_Direction
329 327 321 317 313 303 298 307 313 315 317 314 311 310 310 311 310 309 308 307 306 304 302 301 300 299 298 296 295 295 295 294 294 294 292 291 290 288 288 288 286 285 285 284 283 282 282 283 282 282 282 280 277 275 271 266 262 258 256 255 253 252 252 253 256 264 263 259 262 268 267 265 265 260 258 256 250 247 246 245 245 241 238 240 244
327 325 320 316 314 307 299 303 310 313 315 312 310 309 309 310 309 308 307 306 305 302 301 300 299 298 297 295 293 293 293 292 292 291 290 289 288 287 286 286 285 284 284 283 282 283 282 281 281 282 281 278 276 275 273 271 266 261 257 254 254 254 252 253 257 262 263 259 258 263 264 262 262 260 256 253 249 246 244 242 241 241 242 242 241
323 321 317 314 313 308 299 298 303 308 311 310 309 309 310 310 309 307 305 304 303 300 299 299 298 297 296 294 293 292 292 291 290 289 288 287 286 285 284 284 283 284 283 282 282 282 281 279 279 280 279 277 275 274 273 272 269 265 261 257 256 257 254 253 255 258 263 263 256 257 260 259 259 259 255 252 249 245 243 241 240 242 245 243 242
320 318 313 311 311 307 299 297 299 302 306 308 309 310 310 309 307 305 303 301 300 299 299 298 297 296 295 294 294 293 293 292 291 288 286 285 284 284 284 282 280 280 279 279 280 279 278 277 277 277 275 274 274 273 270 269 267 264 265 262 257 258 256 254 254 256 260 263 256 254 258 258 257 258 254 249 247 243 241 242 243 243 243 242 242
317 315 311 311 311 307 303 301 301 302 305 308 309 310 309 307 305 303 301 301 300 300 300 299 297 296 294 293 293 293 293 292 289 286 283 283 282 281 281 279 277 277 276 276 277 276 275 274 274 273 272 270 271 271 270 268 266 264 263 263 259 257 255 252 253 254 255 258 258 256 256 256 257 255 249 244 245 242 237 240 244 242 240 241 243
315 313 311 312 311 309 308 306 306 305 306 307 308 307 306 304 303 303 303 304 303 301 300 299 298 297 295 294 293 292 291 288 285 283 281 281 280 279 278 277 276 275 274 274 274 272 271 270 271 270 267 267 267 267 268 268 266 264 261 261 263 264 262 256 252 251 252 254 257 257 255 253 253 252 245 240 241 239 233 237 242 239 239 242 244
312 310 309 309 308 307 307 306 304 303 303 305 305 304 303 303 303 303 304 304 302 301 300 299 298 297 295 294 292 290 289 286 282 281 281 280 279 278 276 275 275 275 274 273 271 270 270 268 267 269 267 267 268 267 266 265 264 264 260 259 262 266 267 264 257 252 252 253 255 255 254 252 250 248 245 239 237 236 234 240 246 242 239 242 242
305 304 303 303 302 302 303 303 301 300 301 303 305 304 304 304 304 303 302 300 298 297 297 296 294 294 292 290 289 289 287 285 283 281 280 280 278 277 277 276 277 278 278 278 275 274 275 273 271 273 274 274 274 273 270 265 262 262 260 257 257 258 260 261 258 255 253 254 253 253 253 251 247 244 243 236 232 234 233 238 248 248 243 243 243
301 301 301 300 301 302 303 302 300 301 302 304 305 305 305 305 303 300 298 296 294 293 294 295 294 293 292 290 289 289 285 282 282 282 281 281 280 279 281 281 280 279 278 277 275 274 275 274 274 275 275 274 272 270 267 263 259 259 260 258 256 255 255 255 253 252 252 252 251 249 249 248 244 240 236 230 228 234 233 232 244 249 245 248 252
300 301 300 300 302 303 304 302 302 303 304 306 306 304 305 304 300 297 297 296 298 298 299 299 296 294 293 292 291 289 286 285 286 286 284 284 283 282 282 282 280 279 277 277 277 275 273 271 271 272 271 270 268 267 267 265 262 262 263 261 257 255 253 251 249 248 249 250 250 248 246 246 242 237 233 230 228 233 233 230 239 246 243 248 255
299 299 298 300 302 303 303 302 303 303 304 304 304 302 302 301 300 302 301 300 301 301 301 301 300 297 294 293 292 290 289 291 292 291 289 288 286 285 285 284 282 281 280 278 279 280 278 276 276 275 273 271 269 269 269 267 265 264 263 261 260 257 252 248 245 243 243 247 248 246 246 246 242 236 235 234 231 231 232 232 236 241 240 243 251
298 297 297 299 301 302 303 302 302 302 302 301 300 300 301 301 304 306 304 303 303 301 300 302 303 300 295 294 294 292 293 296 296 293 292 292 290 289 289 287 285 283 280 278 278 280 280 279 277 274 272 270 268 267 267 265 263 263 262 261 260 260 257 253 247 240 236 242 245 244 243 244 241 236 233 233 232 231 233 235 233 235 238 240 243
297 296 297 298 299 301 303 303 301 299 299 299 299 301 302 302 304 305 304 304 302 299 299 300 300 299 296 295 295 295 298 301 300 295 293 294 294 296 295 292 288 285 281 278 277 276 276 276 275 272 270 269 267 266 266 265 263 262 262 260 258 257 258 258 256 247 238 237 240 240 239 240 239 236 231 230 232 232 232 234 234 234 236 237 241
297 296 296 297 299 301 303 303 301 297 297 299 299 300 301 301 304 305 304 301 298 296 298 297 296 298 298 297 295 295 301 304 301 296 295 296 297 301 301 296 290 284 280 277 273 271 272 274 275 274 273 270 266 264 264 264 263 262 261 259 256 255 256 258 259 256 248 242 238 236 235 235 235 236 232 228 230 232 230 230 233 234 235 238 243
298 298 299 299 300 303 304 304 302 298 299 301 301 302 304 304 306 306 302 298 295 295 295 296 295 296 299 298 294 295 303 306 302 298 299 300 302 305 305 299 291 284 280 277 273 272 276 276 275 274 273 270 266 265 263 261 259 259 258 256 255 255 255 255 255 255 253 249 244 241 238 235 234 235 233 229 229 230 229 231 233 233 236 241 244
299 300 300 301 302 303 304 304 301 300 302 302 302 304 306 307 307 307 302 298 297 294 294 295 294 294 297 298 295 297 305 309 305 301 303 304 306 308 305 299 293 287 284 282 278 277 279 278 275 273 270 268 268 268 266 261 257 256 256 255 255 255 256 255 254 252 250 249 248 248 246 241 236 233 231 231 231 227 228 233 234 232 236 241 242
301 301 300 301 301 300 300 300 299 300 302 302 301 303 305 305 306 305 300 297 297 295 295 294 293 293 295 296 296 297 303 310 309 305 305 307 307 307 304 298 294 291 288 287 285 282 282 283 282 279 275 273 274 273 269 263 259 257 256 257 257 257 258 258 256 254 252 249 247 247 245 242 239 234 230 230 229 222 220 228 229 226 230 235 238
300 299 298 298 297 296 297 297 298 299 300 301 301 302 303 303 303 301 296 294 294 294 294 293 292 292 293 295 297 295 297 307 311 306 306 309 308 306 304 300 297 295 293 291 289 287 286 288 289 288 285 280 275 272 268 262 258 256 255 257 257 257 258 258 255 253 255 255 253 249 243 239 238 236 231 230 228 219 214 219 221 219 223 227 233
298 296 296 296 295 296 297 296 296 297 300 302 302 302 303 303 302 299 293 292 293 292 293 292 291 292 294 296 298 295 296 308 313 308 306 311 311 309 307 303 300 299 297 294 293 293 293 296 297 295 294 289 279 273 269 262 254 250 252 254 255 256 257 257 252 247 248 251 254 254 249 241 236 232 228 228 227 221 214 212 212 213 217 221 226
297 294 295 295 295 297 297 297 299 302 304 306 306 306 304 301 300 299 295 292 292 290 292 292 291 294 298 298 300 299 298 305 312 309 307 311 314 312 310 307 303 301 299 296 297 300 301 301 301 299 300 299 291 283 277 267 256 251 250 250 251 254 256 256 251 243 239 242 247 249 247 241 235 230 227 226 226 225 220 212 210 212 213 216 220
297 295 294 294 295 297 299 301 305 307 308 308 308 308 306 302 301 302 298 294 292 292 296 296 292 294 297 296 298 301 298 298 303 306 307 311 315 315 312 308 304 300 299 300 304 306 303 300 301 302 303 304 301 292 283 273 263 257 252 248 248 250 252 253 249 241 234 235 240 239 237 234 230 226 225 222 221 225 224 218 216 217 213 211 218
298 295 293 293 295 300 304 307 308 309 310 310 309 308 308 305 303 302 298 295 294 297 301 301 295 294 297 295 296 300 299 296 297 300 305 311 315 315 313 310 307 305 305 308 309 305 301 301 303 305 306 308 308 302 289 274 265 263 259 253 251 250 248 247 245 239 232 229 228 226 224 224 222 220 221 218 216 221 223 221 223 224 219 215 220
299 294 292 294 300 305 308 309 310 310 310 311 310 308 309 307 304 301 297 293 293 295 300 300 295 294 297 298 299 302 303 303 300 299 303 310 314 316 316 315 314 315 315 313 309 305 305 307 307 309 311 312 314 314 304 283 267 264 264 259 256 254 249 245 242 237 231 225 221 218 215 214 216 217 218 217 217 223 228 229 229 229 226 224 226
297 293 294 298 303 306 308 309 310 310 311 312 310 307 308 306 303 300 295 291 290 291 293 295 295 296 298 301 303 306 307 307 304 301 304 308 313 319 322 319 319 320 318 312 310 309 310 311 312 314 316 316 315 317 314 300 280 268 266 264 260 255 249 246 241 228 219 216 215 214 213 214 217 219 219 218 218 223 228 230 230 229 228 228 230
299 298 301 303 305 307 308 309 309 310 311 311 306 302 303 302 299 298 294 289 288 289 292 295 297 297 299 303 306 308 309 308 306 304 306 309 313 320 323 321 318 318 317 313 312 312 312 316 319 319 319 319 318 315 310 304 295 284 277 274 269 257 247 246 242 221 205 205 208 211 216 219 220 222 221 221 220 219 221 224 227 229 229 227 229
303 304 305 306 307 308 309 309 310 310 311 307 299 295 296 295 294 294 292 288 288 289 292 297 299 299 300 304 307 307 308 309 307 305 308 312 315 318 320 318 316 317 316 314 315 316 316 319 323 324 324 325 325 318 307 296 291 290 286 280 274 263 249 246 240 217 201 202 204 208 216 220 219 219 219 219 218 216 218 222 225 226 224 217 214
305 307 307 307 308 308 308 309 309 309 307 303 297 294 292 291 290 289 287 289 292 293 294 296 299 301 302 306 309 308 308 309 307 307 311 315 316 316 316 317 319 321 321 321 321 319 318 319 323 329 334 337 336 333 326 313 301 296 291 279 269 260 251 248 242 221 208 208 209 211 218 220 215 210 209 209 210 211 216 222 224 224 220 210 202
307 307 307 307 307 307 307 307 306 304 303 302 299 294 292 291 289 287 287 288 290 292 296 297 299 301 303 307 309 308 307 308 307 307 310 312 315 317 318 321 326 326 326 327 324 319 317 320 327 335 341 343 343 342 341 341 340 337 327 311 292 271 254 248 246 234 219 214 214 217 218 214 206 199 198 202 208 211 213 218 221 221 215 205 198
308 307 308 308 308 306 305 303 302 300 301 301 298 294 296 297 294 292 293 291 287 288 291 291 294 300 303 305 307 307 307 305 304 306 310 315 320 324 326 328 330 330 331 331 326 321 321 325 333 339 341 341 341 341 343 346 348 349 347 339 327 308 279 253 241 236 228 220 217 217 212 202 196 197 201 206 211 211 210 213 216 216 210 201 197
306 306 308 308 306 305 302 300 299 298 298 298 297 297 299 299 293 290 292 293 290 291 292 293 296 303 308 306 305 305 304 303 305 309 316 324 330 332 331 333 333 333 337 337 330 325 329 332 336 341 340 338 337 337 340 344 345 347 349 347 340 331 317 290 255 236 228 223 220 216 209 201 197 200 204 209 212 212 209 208 209 211 207 199 196
302 302 305 304 304 306 303 299 299 298 295 295 296 297 300 300 295 292 294 298 300 301 303 306 308 313 316 313 311 310 308 309 313 316 322 330 336 337 334 334 334 338 344 345 337 333 337 338 338 341 339 336 336 336 336 339 341 342 344 346 345 341 333 322 305 274 241 225 222 220 215 210 207 205 206 209 210 208 205 204 206 209 207 199 198
302 301 302 303 305 306 303 299 298 297 295 296 295 295 298 301 302 302 302 304 306 307 310 314 317 320 321 320 320 320 318 318 319 322 327 334 338 338 336 333 334 343 351 352 346 341 341 340 338 340 339 336 336 337 336 337 339 339 339 340 342 341 338 332 325 310 273 239 228 226 224 221 217 211 208 208 208 205 199 197 201 206 205 201 201
306 303 303 304 304 303 300 297 296 294 295 297 297 296 297 299 302 306 308 309 310 310 311 314 316 321 324 326 325 324 323 324 326 327 331 334 336 338 338 336 338 347 354 355 348 341 340 339 337 337 337 336 335 335 336 337 337 337 337 336 335 334 336 339 340 331 298 263 245 235 228 222 218 217 214 209 207 204 197 194 198 205 206 202 199
309 306 305 304 303 300 296 294 293 293 296 296 294 293 293 293 297 302 307 312 314 314 314 314 314 318 324 327 328 326 324 326 329 328 328 332 337 341 341 339 342 351 356 354 345 339 339 338 337 335 335 335 335 335 335 337 338 337 337 336 335 335 338 344 352 355 341 309 279 255 240 226 216 216 217 212 206 203 199 196 199 202 203 199 194
311 308 308 306 303 298 294 293 293 294 295 295 294 293 293 293 295 297 300 305 307 309 312 313 314 318 322 324 326 327 326 326 326 325 328 335 343 346 346 346 347 348 351 350 343 340 338 336 335 335 334 332 334 334 333 335 338 338 338 337 337 341 345 348 354 360 360 354 343 315 277 253 233 221 218 212 205 200 196 196 198 200 199 196 190
311 308 307 306 303 299 295 294 294 294 295 295 294 292 291 291 294 295 295 296 297 299 303 306 310 316 319 319 324 328 329 327 324 325 331 339 346 350 351 349 343 339 340 342 339 337 336 334 334 334 333 331 333 334 333 334 336 337 339 339 338 342 347 349 353 359 0 359 2 7 360 324 282 247 228 215 202 197 196 194 194 197 194 187 180
310 307 303 303 303 300 297 295 294 294 296 295 291 289 289 290 292 293 293 294 294 297 300 303 308 314 318 320 326 329 330 327 323 324 333 341 347 350 347 340 336 334 333 334 335 333 332 332 333 333 332 332 333 333 334 336 336 336 338 340 341 343 345 346 351 357 356 352 357 6 11 6 357 324 262 227 199 191 194 193 191 191 187 178 173
311 307 305 306 306 301 296 294 293 294 295 293 290 289 289 289 291 292 292 293 293 295 298 302 306 311 314 319 325 327 327 326 324 326 334 341 343 343 337 332 331 331 328 328 330 329 327 329 331 331 331 333 333 333 334 336 338 339 340 341 341 344 346 348 351 355 355 352 354 358 358 359 7 8 348 300 195 182 186 187 184 179 173 170 171
309 307 307 309 308 302 296 294 293 293 293 292 292 292 290 290 293 293 292 293 294 295 298 301 302 305 309 315 322 326 327 327 326 327 330 333 333 332 331 327 325 327 326 325 326 326 325 325 328 329 330 331 333 334 334 334 337 340 342 343 344 346 349 350 351 353 354 353 353 355 356 355 357 3 7 12 29 101 166 175 175 169 164 166 170
307 305 305 309 308 302 296 294 292 291 291 292 294 294 292 292 294 293 292 292 293 295 298 299 299 302 306 311 317 323 324 322 320 319 320 321 321 323 325 323 322 324 323 322 323 324 323 323 324 326 328 330 332 334 334 333 334 338 342 344 345 346 349 351 351 352 353 352 351 353 356 355 352 354 2 11 18 28 62 123 149 154 158 162 160
306 303 303 306 306 302 298 294 291 291 292 292 293 293 292 292 293 292 292 292 292 295 298 297 295 297 301 305 313 319 318 313 311 312 312 311 312 315 316 318 319 319 319 321 321 321 321 322 322 323 325 327 329 332 333 334 334 336 340 343 344 344 347 350 352 354 355 353 351 351 353 353 353 355 357 1 5 15 32 54 82 113 133 144 147
306 303 302 304 303 301 297 293 293 294 293 291 291 292 292 292 293 293 292 291 291 293 295 295 295 296 298 303 310 315 313 305 302 304 305 305 306 307 309 311 314 315 316 317 318 318 319 320 320 321 324 326 328 329 331 333 334 334 335 339 341 342 343 346 350 354 355 353 351 351 352 353 353 353 355 358 1 7 17 29 46 70 94 119 134
303 300 299 300 300 298 294 293 294 295 293 292 294 294 293 293 292 292 291 290 290 291 292 294 296 297 298 303 308 310 308 302 299 301 303 303 303 304 306 306 308 311 314 315 315 316 318 318 318 319 321 323 326 327 327 329 331 332 332 334 336 338 339 342 346 350 352 352 351 350 350 351 351 352 355 359 0 4 11 18 28 40 61 101 124
300 298 297 297 297 296 294 293 294 293 293 295 295 293 291 290 289 289 290 289 289 290 290 292 295 297 299 303 306 305 303 302 301 301 302 301 301 301 303 305 306 309 312 314 315 316 316 317 318 319 319 321 325 327 327 327 329 330 331 332 333 335 337 340 343 345 346 347 348 349 348 347 347 348 353 357 359 2 7 11 19 26 32 102 141
299 298 298 297 297 295 294 293 292 293 295 295 294 292 291 289 287 287 289 290 290 292 292 292 294 295 297 301 303 302 300 301 300 299 299 299 300 302 303 305 306 307 309 311 314 315 316 316 317 319 321 322 325 327 329 330 330 330 331 331 330 332 334 334 337 342 344 344 344 346 345 344 343 344 349 352 353 356 2 4 7 12 11 225 193
299 297 297 298 297 295 294 294 292 293 294 293 292 293 294 292 290 289 289 289 291 293 293 294 294 294 295 297 299 299 299 298 298 297 297 297 298 301 303 306 306 305 305 308 312 314 313 314 316 319 320 322 323 326 329 332 333 332 331 330 328 330 331 330 333 338 342 341 340 341 341 340 339 341 347 351 349 349 358 3 359 353 338 247 226
299 298 296 297 297 295 295 294 292 292 292 290 289 291 292 293 294 292 290 290 291 291 291 292 292 292 293 295 296 298 298 296 296 296 296 296 297 298 302 307 309 307 304 305 309 312 312 311 314 317 319 320 322 324 327 331 336 336 334 333 334 335 333 330 332 336 337 335 336 339 339 339 338 339 344 352 352 348 352 0 356 350 313 248 235
300 298 297 298 297 296 296 296 295 294 293 290 289 290 290 291 292 292 291 291 291 290 291 291 289 290 293 294 295 297 297 295 294 295 295 295 296 297 299 304 308 309 308 307 307 309 309 309 311 315 318 319 320 323 325 329 337 340 337 335 337 339 336 332 332 335 334 333 335 338 339 338 339 341 344 351 354 354 352 351 346 331 276 245 231
299 299 299 299 298 297 297 297 296 295 294 292 291 291 290 289 290 290 290 290 290 290 290 290 290 292 294 295 296 298 297 294 294 294 294 296 297 298 299 303 307 309 312 311 308 307 308 309 309 312 315 316 318 320 322 325 334 340 339 335 335 337 335 332 331 334 335 333 333 335 336 337 340 343 346 349 355 0 356 346 339 320 269 245 230
300 299 299 299 298 298 298 297 296 295 293 292 291 291 290 289 289 289 288 290 292 291 290 290 291 292 293 295 296 298 298 296 295 294 296 297 299 299 301 304 306 309 313 314 311 308 308 308 307 308 313 315 316 318 319 321 327 333 333 332 333 336 337 335 333 333 335 334 333 333 334 336 339 344 345 347 354 1 359 350 343 327 284 255 234
301 301 299 298 298 298 297 296 296 296 296 294 292 291 291 290 290 291 290 291 292 292 292 292 292 292 292 294 295 296 298 299 298 296 295 296 298 301 303 305 306 309 312 313 312 309 306 305 304 305 309 313 315 316 316 317 322 326 329 331 333 336 338 339 338 334 332 333 333 332 332 333 336 343 348 348 350 355 356 352 346 334 301 267 244